Flag for Micronesia Weather past 2 weeks in Kolonia, Pohnpei, Micronesia

Now
82 °F

Mostly cloudy.


Feels Like: 88 °F
Forecast: 78 / 82 °F
Wind: 9 mph from Northeast

Location: Pohnpei

Current Time: Apr 2, 2015 at 5:55:51 AM

Latest Report: Apr 2, 2015 at 4:54 AM


Visibility: 15 mi

Pressure: 29.82 "Hg

Humidity: 76%

Dew point: 74 °F

Location of KoloniaLocation

Historic Weather in Kolonia — Graph

°F

Kolonia temperature yesterday

Maximum temperature yesterday: 86 °F (at 1:53 PM)
Minimum temperature yesterday: 75 °F (at 6:53 PM)
Average temperature yesterday: 81 °F

Past Weeks' High & Low Weather Summary

 TemperatureHumidityPressure
High88 °F (Mar 22, 10:53 AM)100% (Mar 19, 6:53 PM)29.98 "Hg (Mar 19, 6:53 PM)
Low73 °F (Mar 21, 5:50 AM)59% (Mar 21, 12:55 PM)29.67 "Hg (Mar 27, 2:53 PM)
Average81 °F86%29.86 "Hg
* Reported Mar 18 4:55 AM — Apr 2 4:54 AM, Kolonia, Weather by CustomWeather, © 2015

Note: Actual official high and low records may vary slightly from our data, if they occured in-between our weather recording intervals... More about our weather records

Advertising

Kolonia weather history for previous 24 hours

 ConditionsComfort  
Time TempWeatherWind HumidityBarometerVisibility
4:54 AM
Thu, Apr 2
82 °FMostly cloudy.9 mph76%29.82 "Hg15 mi
3:52 AM74 °FSprinkles. Mostly cloudy.3 mph97%29.75 "Hg10 mi
2:53 AM75 °FSprinkles. Mostly cloudy.3 mph96%29.77 "Hg7 mi
1:54 AM78 °FMostly cloudy.7 mph94%29.78 "Hg15 mi
12:53 AM82 °FMostly cloudy.8 mph75%29.85 "Hg15 mi
11:53 PM
Wed, Apr 1
77 °FMostly cloudy.3 mph95%29.82 "Hg15 mi
10:53 PM76 °FSprinkles. Mostly cloudy.5 mph96%29.84 "Hg12 mi
9:52 PM76 °FLots of rain. Mostly cloudy.6 mph96%29.85 "Hg5 mi
8:53 PM76 °FSprinkles. Mostly cloudy.6 mph96%29.83 "Hg12 mi
7:52 PM77 °FSprinkles. Mostly cloudy.3 mph95%29.80 "Hg12 mi
6:53 PM75 °FSprinkles. Mostly cloudy.5 mph95%29.80 "Hg12 mi
5:54 PM76 °FSprinkles. Mostly cloudy.7 mph87%29.79 "Hg12 mi
4:53 PM84 °FMostly cloudy.8 mph77%29.76 "Hg15 mi
3:55 PM86 °FMostly cloudy.8 mph72%29.74 "Hg15 mi
2:52 PM86 °FMostly cloudy.7 mph73%29.75 "Hg15 mi
1:53 PM86 °FCloudy.7 mph73%29.77 "Hg15 mi
12:52 PM85 °FMostly cloudy.7 mph76%29.79 "Hg15 mi
11:56 AM84 °FMostly cloudy.7 mph77%29.83 "Hg15 mi
10:52 AM84 °FMostly cloudy.6 mph77%29.85 "Hg15 mi
9:54 AM84 °FMostly cloudy.7 mph73%29.88 "Hg15 mi
8:56 AM85 °FMore clouds than sun.7 mph74%29.87 "Hg15 mi
7:53 AM82 °FMore clouds than sun.10 mph77%29.85 "Hg15 mi
6:52 AM81 °FMore clouds than sun.8 mph79%29.84 "Hg15 mi
5:52 AM81 °FMostly cloudy.5 mph78%29.83 "Hg15 mi
Weather by CustomWeather, © 2015

See weather overviewHow to use our weather pages